Wind_Speed
7 8 8 8 7 6 5 4 4 4 5 5 6 7 8 9 10 10 12 13 12 11 11 10 10 11 12 12 12 12 12 12 12 13 13 13 13 13 13 13 12 12 11 11 11 11 11 11 12
8 9 9 8 6 5 6 6 6 7 6 7 8 9 10 11 12 13 13 14 14 13 12 12 12 12 13 14 15 15 14 15 15 15 15 15 15 15 15 15 14 14 14 13 12 12 12 12 12
9 10 10 10 7 7 7 8 7 8 8 9 10 11 12 13 14 14 14 14 14 13 13 14 13 14 16 16 17 17 17 17 17 17 17 17 17 18 18 17 17 16 15 15 14 13 13 12 12
9 10 11 10 9 9 8 8 9 10 10 10 11 13 14 15 16 16 16 16 16 16 15 16 17 16 17 19 19 19 20 20 20 19 19 19 19 20 20 20 19 18 17 16 15 14 14 13 12
10 10 11 11 11 10 11 11 12 12 13 13 13 14 15 16 17 18 18 18 18 19 19 20 20 20 20 21 21 21 22 22 22 22 21 22 21 22 22 21 21 20 19 18 17 16 14 13 12
11 11 12 12 12 12 12 12 12 13 15 15 14 15 15 17 18 19 20 20 21 22 23 23 24 24 25 25 25 25 25 25 25 26 26 25 24 24 23 24 23 22 20 19 19 17 16 14 13
12 13 14 13 12 13 13 14 15 14 15 15 16 16 17 18 19 19 20 21 22 23 24 24 25 25 26 27 28 28 29 29 29 29 28 27 27 27 26 25 25 24 23 21 20 20 18 16 15
14 14 15 14 13 14 15 15 15 15 16 17 17 16 17 18 19 20 21 22 22 23 24 24 24 25 26 27 29 29 30 31 32 32 31 30 29 29 29 29 27 26 25 24 23 22 21 19 17
14 15 16 15 15 15 16 16 16 16 16 17 17 17 17 18 19 20 21 21 22 22 22 23 24 24 25 26 28 29 31 32 33 34 33 33 32 31 30 30 29 28 27 25 25 24 23 21 20
16 16 16 15 16 16 16 16 16 16 16 16 16 17 17 18 19 19 19 20 19 20 20 21 22 22 23 24 25 26 28 30 32 34 34 34 34 32 32 31 30 30 28 28 27 26 25 24 22
17 16 16 16 16 16 16 16 16 16 16 16 17 17 17 17 17 17 16 16 17 17 18 19 20 20 21 22 22 23 24 26 29 31 33 34 34 34 33 33 31 31 30 29 28 27 26 26 24
17 17 17 17 16 16 17 16 16 15 14 15 15 16 15 14 14 15 15 16 16 17 17 17 18 18 19 19 20 20 22 22 24 27 29 31 32 33 33 33 31 31 30 30 29 28 26 26 25
17 16 16 15 15 16 14 14 14 13 13 13 13 13 13 13 13 14 15 15 16 16 16 17 17 17 18 18 18 19 19 20 21 23 25 27 29 30 31 32 32 32 31 30 31 30 28 26 25
17 17 17 16 15 14 14 14 13 13 13 12 11 11 11 12 12 13 14 15 15 15 16 16 17 17 17 17 17 17 18 18 19 20 21 23 25 27 27 29 30 31 31 30 30 30 29 27 26
18 16 16 16 14 14 13 13 13 12 11 9 9 9 10 11 12 13 14 14 15 15 16 16 17 17 17 17 17 17 17 17 17 17 18 20 21 23 25 26 27 29 30 29 28 28 28 27 26
16 15 15 14 12 12 12 12 11 10 8 8 8 8 9 10 11 12 13 14 15 16 16 17 17 17 17 17 17 16 16 16 15 15 15 16 17 19 21 23 25 26 28 29 28 28 27 27 26
16 15 14 12 10 11 11 11 9 8 7 7 7 7 8 9 10 12 13 14 15 16 17 17 18 18 18 17 17 16 15 15 14 13 13 13 15 16 18 20 22 24 26 27 28 28 28 28 28
15 14 12 11 11 11 10 9 8 7 6 6 6 6 7 8 9 11 12 14 15 16 17 18 18 18 18 17 17 17 15 14 14 13 12 12 13 14 16 17 19 21 24 26 27 28 28 28 28
14 12 12 11 10 10 9 9 7 6 5 5 5 5 6 7 9 11 12 14 15 16 18 18 19 18 18 18 18 18 17 16 14 13 12 12 12 13 15 16 17 19 21 24 26 27 28 28 28
13 12 11 11 10 10 9 8 7 5 5 5 4 5 5 6 8 10 11 13 15 16 18 19 19 19 19 18 19 18 17 16 15 14 13 13 12 12 13 15 16 18 20 22 25 27 27 28 28
12 12 12 11 10 10 9 7 6 4 4 3 3 4 5 6 7 9 11 13 15 16 18 19 20 20 19 19 19 19 19 18 17 16 14 13 12 12 12 13 14 16 18 20 23 25 27 28 28
13 12 12 12 10 9 8 7 6 4 3 2 2 3 4 5 7 9 10 12 14 16 18 19 20 20 20 20 20 20 19 19 18 17 15 14 13 12 11 12 13 14 15 17 19 22 24 26 26
13 12 12 11 10 9 8 7 5 4 3 1 2 3 4 5 7 9 10 12 14 16 17 19 20 20 20 20 20 20 20 19 19 18 16 15 13 12 11 10 10 11 13 14 16 18 21 23 25
13 12 12 12 10 9 8 6 5 4 3 1 2 2 3 5 7 8 10 12 14 15 17 19 20 20 20 21 20 20 20 20 20 19 17 15 14 12 11 9 9 8 9 11 12 14 18 20 23
13 12 12 11 10 8 7 6 5 5 3 2 2 2 3 5 6 8 10 12 13 15 17 18 19 20 20 20 21 21 20 21 20 20 19 17 15 14 12 10 8 7 7 8 10 12 15 17 20
12 12 12 11 9 8 7 6 6 5 3 2 2 2 3 4 6 8 9 11 13 14 16 18 19 20 20 20 21 21 21 21 21 20 19 18 16 15 13 11 10 7 5 6 7 9 11 14 16
12 12 11 11 9 8 7 6 6 6 4 3 2 2 3 4 6 7 9 10 12 14 16 17 19 19 20 21 21 21 21 21 21 20 20 19 17 15 14 13 11 9 6 5 6 7 9 11 13
11 11 11 10 10 8 7 7 7 7 6 4 2 2 2 4 5 7 9 10 12 13 15 16 18 19 20 20 21 21 21 21 21 20 20 19 18 16 15 14 12 10 9 7 5 5 7 8 11
11 11 11 10 10 9 8 7 8 7 6 5 3 2 2 3 5 7 8 10 11 13 14 15 17 18 19 20 20 20 20 20 20 20 20 19 19 17 16 15 13 12 10 9 7 5 6 7 9
10 10 11 11 10 9 8 7 8 8 7 5 4 2 2 3 5 7 8 9 11 12 14 15 16 17 18 19 20 20 20 20 20 20 20 19 19 18 17 16 15 14 12 10 9 7 6 6 7
Wind_Direction
321 319 315 312 322 334 354 356 339 339 329 333 329 322 315 309 310 309 307 305 301 297 294 296 291 282 276 274 272 270 268 264 263 262 259 257 257 257 257 256 256 258 260 263 266 269 268 270 271
309 313 315 320 327 336 343 339 331 326 318 322 318 313 310 307 306 306 306 305 303 294 291 290 284 279 278 275 274 271 268 267 268 264 262 260 259 259 259 258 258 258 260 262 265 269 269 269 271
301 307 315 326 334 334 337 330 321 320 315 313 309 307 307 306 305 303 302 300 299 293 290 288 282 277 277 278 275 272 270 270 270 267 263 262 260 259 258 258 259 258 259 261 263 266 268 268 269
295 301 307 318 325 326 327 321 314 317 309 306 307 305 302 303 302 300 298 296 292 290 288 287 284 279 278 278 273 270 270 270 269 267 265 262 260 259 258 257 257 257 257 258 260 263 264 266 267
289 293 297 306 314 316 315 310 309 314 307 305 306 305 303 302 300 297 295 291 288 285 285 283 284 279 275 272 269 271 271 271 269 267 265 262 262 259 257 257 257 255 256 256 258 260 261 262 263
284 284 289 297 303 302 301 302 303 307 309 307 308 307 304 303 300 298 295 292 289 286 283 281 279 277 275 272 271 270 269 268 267 265 264 263 261 259 257 257 257 255 253 254 256 258 259 258 257
276 280 286 292 297 298 299 301 304 308 309 309 310 308 308 305 302 300 298 296 293 290 288 286 282 278 276 272 271 269 268 265 264 263 262 261 261 258 257 257 256 255 253 253 255 254 255 255 253
274 278 282 289 293 295 298 301 304 308 310 309 308 309 309 307 305 303 301 299 297 294 292 288 284 280 276 272 270 268 266 265 263 262 261 261 258 257 256 255 254 255 254 253 254 253 251 251 249
272 277 281 287 293 295 296 301 306 308 308 309 308 309 310 309 309 307 305 303 301 299 296 293 289 286 282 279 275 271 267 265 263 262 260 260 259 257 255 255 255 254 252 252 253 252 249 250 249
269 273 279 286 293 294 294 300 306 308 309 311 311 310 311 312 311 310 309 308 306 305 302 299 295 291 287 284 281 277 272 268 265 263 261 259 257 256 255 253 253 252 250 250 251 250 248 249 247
265 271 278 285 289 292 296 298 304 307 308 311 311 312 315 315 316 317 318 318 316 315 312 307 301 298 294 290 286 283 278 273 268 264 262 259 257 256 255 253 250 250 250 249 250 251 248 248 248
262 269 276 283 289 293 298 299 304 307 310 312 314 316 320 321 324 328 330 330 329 326 322 318 312 307 303 299 294 289 285 280 274 267 264 260 257 255 255 253 250 249 249 248 248 248 249 248 245
258 267 276 284 291 295 299 301 307 310 312 314 317 321 325 330 332 335 337 337 335 333 331 327 322 318 313 309 305 300 293 287 280 273 267 261 258 256 254 253 252 250 248 248 248 246 246 245 242
257 268 276 285 289 296 297 301 306 308 312 314 316 322 329 335 340 345 346 345 343 340 337 335 331 328 323 317 311 307 302 295 287 280 272 264 259 256 254 252 250 249 248 246 246 245 244 244 244
257 267 273 280 286 292 301 307 310 312 313 315 319 324 332 342 351 355 355 355 353 350 349 347 343 339 333 327 320 314 309 304 296 288 278 268 262 257 254 252 249 245 244 244 244 243 242 242 243
256 264 270 278 283 290 303 311 313 315 314 319 327 331 340 352 359 1 1 2 1 0 358 355 353 348 343 338 332 325 320 315 308 298 287 275 266 261 256 253 249 245 243 242 241 241 240 240 240
253 261 268 277 282 290 302 311 315 313 313 321 329 335 348 0 5 6 6 7 7 6 4 1 360 357 353 350 346 341 336 329 322 313 301 285 272 265 261 256 251 245 241 241 239 240 239 238 238
253 262 270 277 284 293 301 304 305 307 310 320 329 339 354 4 8 10 11 12 11 10 7 6 5 4 1 358 356 352 347 341 334 325 315 299 284 273 266 260 254 249 244 240 238 238 238 238 237
251 262 270 277 285 293 295 295 297 300 308 318 328 344 359 8 10 14 16 16 15 13 11 10 8 6 4 1 358 355 352 348 343 334 324 312 297 282 271 264 258 252 247 242 239 238 238 238 237
247 252 262 271 279 285 287 289 290 290 301 310 325 349 7 14 18 19 18 18 17 14 12 11 9 6 4 1 360 358 355 351 346 340 331 320 306 294 282 271 263 255 250 246 241 237 237 236 236
243 249 257 266 271 276 275 277 278 284 296 306 327 353 8 17 22 21 19 16 14 13 11 10 8 7 5 2 0 359 356 353 348 344 339 331 318 305 294 282 270 261 254 248 243 239 237 237 236
238 246 253 261 267 266 263 263 266 267 267 294 330 356 9 19 23 20 17 14 13 12 10 9 9 7 6 4 3 2 360 357 355 352 347 340 332 319 306 293 281 270 260 252 247 244 240 239 237
237 245 251 255 259 260 258 257 253 243 236 272 327 352 9 20 23 19 16 13 12 11 11 10 9 7 7 7 5 5 3 2 1 359 354 350 344 333 321 308 297 280 266 258 252 248 244 241 239
238 246 250 252 255 253 255 255 242 232 233 272 318 346 9 19 20 17 14 12 11 12 11 10 9 9 9 9 9 9 7 6 5 4 1 359 356 351 341 328 315 295 276 266 258 253 247 242 239
238 244 247 250 250 250 249 249 241 233 240 271 306 344 9 16 16 15 12 11 11 11 11 10 10 10 11 11 11 11 11 11 10 8 7 7 5 2 358 351 338 315 289 275 267 260 254 246 241
238 242 248 250 247 245 244 246 239 236 245 265 295 343 5 11 11 10 10 10 10 11 11 11 11 11 12 12 12 12 12 12 12 12 11 11 9 7 5 3 358 345 317 290 276 267 259 251 244
240 245 248 250 245 243 242 240 234 240 247 256 271 318 351 1 5 8 8 9 9 10 11 12 12 13 13 13 13 12 12 13 14 14 14 14 14 13 10 8 4 359 349 322 292 276 271 258 251
246 249 250 249 246 244 241 235 232 235 240 243 253 297 341 355 3 8 8 8 9 10 12 12 12 13 13 13 13 12 14 14 15 16 16 16 16 16 14 12 10 7 1 353 331 302 285 271 262
250 249 248 248 248 249 242 233 229 232 232 233 241 274 328 349 357 360 2 4 7 8 9 10 10 11 12 12 12 12 14 15 16 16 17 18 19 19 19 17 15 13 10 4 357 341 316 293 281
250 248 247 247 247 248 242 228 228 228 226 229 233 251 305 338 350 355 358 2 4 5 5 6 7 8 10 11 12 12 13 15 17 17 17 18 18 19 19 19 19 19 18 12 7 358 340 320 303
Height
5887 5886 5885 5885 5884 5883 5882 5883 5883 5882 5882 5881 5880 5880 5879 5879 5879 5880 5877 5874 5873 5872 5872 5871 5870 5870 5869 5869 5868 5868 5867 5867 5867 5868 5868 5869 5870 5871 5871 5872 5873 5873 5874 5874 5875 5876 5876 5877 5878
5887 5886 5886 5884 5883 5882 5883 5882 5882 5882 5881 5880 5879 5878 5877 5876 5876 5875 5873 5872 5871 5870 5869 5869 5868 5867 5867 5866 5866 5865 5865 5864 5864 5865 5865 5866 5867 5867 5868 5869 5870 5870 5871 5872 5872 5873 5874 5875 5875
5887 5886 5885 5883 5882 5882 5882 5881 5881 5880 5879 5879 5878 5876 5875 5874 5873 5872 5871 5870 5869 5868 5867 5866 5865 5865 5864 5863 5863 5862 5862 5861 5861 5861 5862 5862 5863 5864 5865 5866 5867 5867 5868 5869 5870 5871 5871 5872 5873
5886 5885 5885 5884 5882 5881 5881 5881 5880 5879 5878 5877 5876 5875 5873 5872 5871 5869 5868 5867 5866 5865 5864 5863 5862 5861 5861 5860 5859 5859 5858 5858 5858 5858 5858 5858 5859 5860 5861 5862 5863 5864 5865 5866 5867 5868 5869 5870 5870
5884 5884 5884 5882 5881 5881 5880 5879 5878 5877 5876 5875 5874 5872 5871 5870 5868 5866 5865 5864 5863 5862 5861 5859 5858 5857 5856 5856 5855 5854 5854 5854 5854 5854 5854 5854 5855 5856 5857 5858 5859 5860 5861 5863 5864 5865 5866 5867 5868
5883 5882 5882 5881 5880 5879 5878 5877 5876 5875 5873 5872 5871 5870 5868 5867 5865 5863 5861 5860 5859 5857 5856 5855 5854 5853 5852 5851 5850 5849 5849 5849 5849 5849 5849 5850 5850 5851 5852 5853 5854 5856 5857 5858 5860 5861 5863 5864 5865
5881 5881 5880 5879 5878 5877 5876 5875 5874 5872 5871 5870 5868 5867 5865 5863 5861 5859 5858 5856 5854 5852 5851 5850 5848 5847 5846 5845 5844 5844 5844 5844 5844 5843 5844 5844 5845 5846 5847 5848 5850 5851 5852 5854 5856 5857 5859 5860 5862
5878 5879 5877 5877 5876 5875 5874 5873 5872 5870 5869 5867 5865 5864 5862 5860 5858 5856 5854 5852 5850 5848 5846 5844 5842 5841 5840 5839 5838 5837 5837 5837 5837 5837 5837 5838 5839 5840 5841 5842 5844 5846 5848 5849 5851 5853 5854 5856 5858
5875 5876 5875 5874 5874 5873 5872 5871 5869 5868 5866 5864 5862 5860 5859 5856 5854 5852 5850 5847 5845 5843 5841 5839 5837 5835 5834 5832 5831 5830 5830 5829 5829 5830 5830 5831 5832 5833 5835 5836 5838 5840 5842 5844 5846 5848 5850 5852 5854
5873 5873 5872 5872 5872 5871 5869 5868 5867 5865 5863 5861 5859 5857 5855 5853 5850 5848 5846 5843 5841 5839 5836 5834 5832 5830 5828 5826 5825 5823 5822 5822 5822 5822 5823 5824 5825 5826 5828 5830 5832 5834 5836 5838 5840 5842 5845 5847 5849
5869 5870 5870 5870 5869 5868 5867 5866 5864 5862 5861 5859 5857 5854 5852 5849 5847 5845 5842 5840 5837 5835 5832 5829 5827 5825 5823 5821 5819 5817 5816 5815 5814 5814 5815 5816 5817 5819 5821 5823 5825 5827 5830 5832 5834 5836 5839 5842 5844
5866 5867 5867 5867 5866 5865 5864 5863 5861 5860 5858 5856 5854 5851 5849 5847 5844 5842 5839 5836 5834 5831 5828 5826 5823 5820 5818 5816 5813 5811 5810 5808 5807 5807 5807 5808 5810 5812 5813 5816 5818 5820 5823 5825 5828 5831 5833 5836 5839
5863 5864 5864 5864 5864 5863 5862 5860 5859 5857 5856 5854 5851 5849 5847 5845 5842 5840 5837 5834 5831 5828 5825 5822 5819 5816 5814 5811 5809 5806 5804 5803 5801 5801 5800 5801 5802 5804 5806 5808 5811 5813 5816 5819 5822 5824 5828 5830 5833
5861 5861 5862 5862 5862 5861 5860 5858 5857 5855 5853 5851 5850 5848 5845 5843 5840 5837 5834 5832 5829 5826 5823 5820 5816 5813 5810 5807 5804 5802 5800 5798 5796 5795 5794 5794 5795 5797 5799 5801 5803 5806 5809 5812 5815 5818 5821 5824 5827
5858 5859 5860 5860 5859 5858 5858 5856 5854 5852 5851 5849 5848 5846 5843 5841 5838 5836 5833 5830 5827 5824 5821 5817 5814 5810 5807 5804 5800 5798 5795 5793 5791 5790 5789 5789 5789 5791 5792 5794 5797 5799 5802 5805 5809 5812 5815 5818 5821
5855 5857 5857 5857 5857 5856 5856 5854 5852 5850 5849 5847 5846 5844 5842 5840 5837 5835 5832 5829 5826 5823 5819 5816 5812 5808 5805 5801 5797 5794 5791 5789 5787 5785 5784 5784 5784 5785 5786 5788 5790 5792 5795 5799 5802 5805 5809 5812 5815
5853 5854 5854 5855 5854 5853 5853 5851 5850 5848 5847 5846 5844 5843 5841 5839 5836 5834 5831 5828 5825 5822 5818 5815 5811 5807 5803 5799 5795 5792 5789 5786 5784 5782 5781 5780 5780 5781 5781 5782 5784 5786 5789 5792 5795 5799 5802 5806 5809
5850 5851 5851 5852 5851 5851 5850 5849 5848 5847 5846 5844 5843 5841 5840 5838 5835 5833 5830 5827 5825 5821 5818 5814 5810 5806 5802 5798 5795 5791 5788 5785 5782 5780 5778 5777 5777 5777 5777 5778 5779 5780 5783 5786 5789 5792 5795 5799 5803
5847 5849 5849 5849 5849 5849 5848 5847 5846 5845 5844 5843 5842 5840 5839 5837 5835 5832 5830 5827 5824 5821 5817 5813 5810 5806 5802 5798 5794 5790 5787 5784 5781 5778 5776 5775 5774 5773 5773 5773 5774 5775 5777 5780 5782 5786 5789 5793 5796
5845 5846 5847 5847 5847 5847 5846 5846 5845 5844 5843 5842 5841 5840 5838 5836 5834 5832 5830 5827 5824 5821 5817 5813 5809 5805 5802 5798 5794 5790 5786 5783 5780 5777 5774 5772 5771 5770 5769 5769 5769 5770 5772 5774 5776 5779 5783 5786 5790
5843 5844 5845 5845 5845 5845 5845 5845 5844 5843 5842 5841 5840 5839 5837 5836 5834 5832 5829 5827 5824 5821 5817 5813 5809 5805 5801 5797 5793 5789 5786 5782 5778 5775 5772 5770 5768 5766 5765 5765 5765 5766 5767 5768 5771 5773 5777 5780 5783
5841 5842 5842 5843 5843 5843 5844 5843 5843 5842 5841 5841 5840 5838 5837 5835 5833 5831 5829 5826 5824 5820 5817 5813 5809 5805 5801 5797 5793 5789 5785 5781 5777 5774 5770 5768 5765 5763 5762 5761 5761 5761 5762 5763 5765 5768 5770 5774 5777
5838 5839 5840 5841 5841 5842 5841 5842 5842 5841 5840 5840 5839 5837 5836 5835 5833 5831 5829 5826 5823 5820 5817 5813 5809 5805 5801 5797 5793 5789 5785 5781 5777 5773 5769 5766 5763 5761 5759 5758 5757 5757 5757 5759 5760 5762 5765 5767 5771
5836 5838 5838 5839 5839 5840 5840 5840 5840 5840 5839 5839 5838 5837 5835 5834 5832 5830 5828 5826 5823 5820 5817 5813 5810 5806 5801 5797 5793 5789 5785 5781 5777 5773 5769 5765 5762 5760 5757 5756 5754 5754 5754 5755 5756 5758 5760 5762 5765
5835 5836 5837 5837 5837 5838 5838 5838 5839 5838 5838 5837 5837 5836 5835 5833 5832 5830 5828 5826 5823 5820 5817 5814 5810 5806 5802 5798 5794 5790 5786 5781 5777 5773 5769 5765 5762 5759 5757 5755 5753 5752 5752 5752 5753 5754 5755 5757 5759
5833 5834 5836 5836 5836 5836 5836 5836 5838 5837 5837 5836 5836 5835 5834 5833 5831 5830 5828 5826 5823 5820 5817 5814 5810 5807 5803 5799 5795 5791 5786 5782 5778 5774 5770 5766 5763 5760 5757 5754 5753 5751 5751 5751 5751 5751 5752 5753 5755
5831 5832 5833 5834 5834 5834 5835 5836 5836 5836 5836 5836 5835 5834 5834 5833 5831 5830 5828 5825 5823 5820 5817 5814 5811 5807 5804 5800 5796 5791 5787 5783 5779 5775 5771 5767 5763 5760 5757 5755 5753 5751 5750 5749 5749 5749 5749 5750 5751
5830 5830 5831 5832 5832 5832 5833 5834 5835 5835 5835 5835 5834 5834 5833 5832 5831 5829 5827 5825 5823 5820 5818 5815 5811 5808 5804 5800 5797 5793 5788 5784 5780 5776 5772 5768 5765 5761 5758 5755 5753 5751 5750 5749 5748 5748 5748 5748 5749
5828 5829 5829 5829 5830 5831 5831 5835 5833 5833 5834 5834 5833 5833 5832 5831 5830 5829 5827 5825 5823 5820 5818 5815 5812 5809 5805 5801 5797 5793 5789 5785 5781 5778 5774 5770 5766 5763 5760 5757 5754 5752 5750 5749 5748 5747 5746 5746 5746
5826 5827 5827 5828 5829 5829 5829 5834 5831 5832 5832 5832 5832 5832 5831 5830 5829 5828 5826 5824 5822 5820 5817 5815 5812 5809 5806 5802 5798 5794 5791 5787 5783 5779 5775 5772 5768 5765 5761 5758 5756 5753 5751 5749 5748 5747 5746 5745 5744